Starlink 31171

operational
NORAD ID: 58834 Int'l Des: 2024-017 Owner: SPXS Country: US Constellation: starlink
LEOCIRCULAR

Starlink 31171について

説明を読み込み中...

リアルタイム位置

3D地球を読み込み中...

次回通過

高度履歴

Altitude vs Time

uPlot chart will show altitude changes over time

軌道要素

1 58834U 24017J 25258.59107954 -.00000165 00000-0 65387-5 0 9991
2 58834 53.1592 274.0844 0001121 88.4453 271.6676 15.30193890 93579
Epoch: Sep 15, 2025 • Age: 14 hours

現在のステータス

高度 479.0 km
速度 7.63 km/s
衛星直下点 -13.11°S, 157.33°W
打ち上げ日 Jan 24, 2024
運用期間 1.6 years
タイプ internet

技術仕様

分類 Payload
質量 730.00 kg
乾燥質量 700.00 kg
総質量 730.00 kg
長さ 0.30 m
直径 4.10 m
スパン 29.00 m
形状 Box + pan
製造者 SPXS
バスタイプ Starlink V2M
フェーズステータス In Orbit
所有者/国 SPXS/US

大規模コンステレーション

Loading constellations...